Location: Aufkirchen
(47.9603°N, 11.3653°E)
Time: 17:17:22
(UTC+01:00)

Transit 4A - Pass Details

Date: 26 November 2020
Orbit: 864 x 980 km, 66.8° (Epoch: 26 January)

Event Time Altitude Azimuth Distance (km) Brightness Sun altitude
Rises 08:22:41 0° 193° (SSW) 3,610 11.4 5.4°
Reaches altitude 10° 08:25:16 10° 188° (S) 2,683 10.8 5.7°
Maximum altitude 08:31:17 50° 115° (ESE) 1,223 9.4 6.5°
Drops below altitude 10° 08:37:26 10° 43° (NE) 2,738 10.4 7.2°
Sets 08:40:05 0° 38° (NE) 3,691 11.0 7.5°
